• In Romania
  • List of Countries
  • For 7 days
  • Water Temperature
  • Satellite Maps
  • Weather Map
  • Weather Widgets
  • user-avatar
    Login

    Hourly Weather La Rioja

    Today, 19 January, Thursday

    Time Temperature Precipitation Wind Pressure Humidity
    00:00 +30°C° 0 mm 2 mps 713 mmHg 39%
    01:00 +29°C° 0 mm 2 mps 713 mmHg 40%
    02:00 +29°C° 0 mm 2 mps 713 mmHg 40%
    03:00 +28°C° 0 mm 2 mps 713 mmHg 41%
    04:00 +28°C° 0 mm 2 mps 713 mmHg 43%
    05:00 +28°C° 0 mm 2 mps 713 mmHg 44%
    06:00 +29°C° 0 mm 2 mps 713 mmHg 40%
    07:00 +31°C° 0 mm 2 mps 714 mmHg 37%
    08:00 +32°C° 0 mm 2 mps 714 mmHg 33%
    09:00 +35°C° 0 mm 2 mps 714 mmHg 30%
    10:00 +36°C° 0 mm 2 mps 714 mmHg 28%
    11:00 +38°C° 0 mm 2 mps 714 mmHg 25%
    12:00 +39°C° 0 mm 3 mps 713 mmHg 24%
    13:00 +41°C° 0 mm 4 mps 713 mmHg 23%
    14:00 +42°C° 0 mm 4 mps 713 mmHg 22%
    15:00 +42°C° 0 mm 5 mps 712 mmHg 22%
    16:00 +42°C° 0 mm 5 mps 712 mmHg 22%
    17:00 +42°C° 0 mm 6 mps 712 mmHg 23%
    18:00 +40°C° 0 mm 5 mps 712 mmHg 27%
    19:00 +37°C° 0 mm 4 mps 713 mmHg 30%
    20:00 +35°C° 0 mm 3 mps 713 mmHg 34%
    21:00 +34°C° 0 mm 3 mps 714 mmHg 35%
    22:00 +33°C° 0 mm 3 mps 715 mmHg 37%
    23:00 +31°C° 0 mm 2 mps 715 mmHg 38%

    Tomorrow, 20 January, Friday

    Time Temperature Precipitation Wind Pressure Humidity
    00:00 +31°C° 0 mm 2 mps 715 mmHg 40%
    01:00 +30°C° 0 mm 2 mps 715 mmHg 41%
    02:00 +30°C° 0 mm 2 mps 715 mmHg 42%
    03:00 +29°C° 0.1 mm 2 mps 715 mmHg 43%
    04:00 +29°C° 0.1 mm 1 mps 715 mmHg 43%
    05:00 +28°C° 0.1 mm 1 mps 715 mmHg 44%
    06:00 +30°C° 0.1 mm 1 mps 716 mmHg 40%
    07:00 +31°C° 0.1 mm 1 mps 717 mmHg 36%
    08:00 +34°C° 0.1 mm 2 mps 717 mmHg 32%
    09:00 +35°C° 0 mm 2 mps 717 mmHg 30%
    10:00 +36°C° 0 mm 2 mps 717 mmHg 28%
    11:00 +38°C° 0 mm 2 mps 717 mmHg 26%
    12:00 +39°C° 0 mm 3 mps 717 mmHg 25%
    13:00 +40°C° 0 mm 3 mps 716 mmHg 23%
    14:00 +42°C° 0 mm 4 mps 715 mmHg 22%
    15:00 +42°C° 0 mm 5 mps 715 mmHg 21%
    16:00 +42°C° 0 mm 5 mps 714 mmHg 21%
    17:00 +42°C° 0 mm 6 mps 714 mmHg 20%
    18:00 +40°C° 0 mm 5 mps 714 mmHg 23%
    19:00 +37°C° 0 mm 4 mps 715 mmHg 25%
    20:00 +35°C° 0 mm 3 mps 715 mmHg 28%
    21:00 +34°C° 0 mm 3 mps 715 mmHg 30%
    22:00 +32°C° 0 mm 2 mps 716 mmHg 32%
    23:00 +31°C° 0 mm 2 mps 717 mmHg 35%

    Day after tomorrow, 21 January, Saturday

    Time Temperature Precipitation Wind Pressure Humidity
    00:00 +30°C° 0 mm 2 mps 716 mmHg 36%
    01:00 +29°C° 0 mm 2 mps 716 mmHg 37%
    02:00 +29°C° 0 mm 2 mps 716 mmHg 39%
    03:00 +28°C° 0 mm 2 mps 716 mmHg 40%
    04:00 +28°C° 0 mm 1 mps 716 mmHg 42%
    05:00 +27°C° 0 mm 1 mps 716 mmHg 43%
    06:00 +29°C° 0 mm 1 mps 716 mmHg 39%
    07:00 +30°C° 0 mm 1 mps 717 mmHg 35%
    08:00 +32°C° 0 mm 1 mps 717 mmHg 32%
    09:00 +33°C° 0 mm 1 mps 717 mmHg 29%
    10:00 +36°C° 0 mm 2 mps 717 mmHg 27%
    11:00 +37°C° 0 mm 2 mps 717 mmHg 24%
    12:00 +39°C° 0 mm 3 mps 716 mmHg 22%
    13:00 +40°C° 0 mm 3 mps 715 mmHg 20%
    14:00 +42°C° 0 mm 4 mps 714 mmHg 18%
    15:00 +42°C° 0 mm 4 mps 714 mmHg 18%
    16:00 +42°C° 0 mm 5 mps 713 mmHg 17%
    17:00 +42°C° 0 mm 5 mps 712 mmHg 16%
    18:00 +40°C° 0 mm 5 mps 712 mmHg 19%
    19:00 +37°C° 0 mm 4 mps 713 mmHg 22%
    20:00 +35°C° 0 mm 3 mps 713 mmHg 25%
    21:00 +34°C° 0 mm 3 mps 713 mmHg 27%
    22:00 +32°C° 0 mm 2 mps 714 mmHg 29%
    23:00 +31°C° 0 mm 2 mps 714 mmHg 31%

    22 January, Sunday

    Time Temperature Precipitation Wind Pressure Humidity
    00:00 +31°C° 0 mm 2 mps 714 mmHg 32%
    01:00 +30°C° 0 mm 2 mps 713 mmHg 32%
    02:00 +30°C° 0 mm 2 mps 713 mmHg 32%
    03:00 +29°C° 0 mm 2 mps 713 mmHg 34%
    04:00 +29°C° 0 mm 2 mps 713 mmHg 35%
    05:00 +28°C° 0 mm 1 mps 713 mmHg 36%
    06:00 +30°C° 0 mm 1 mps 713 mmHg 33%
    07:00 +31°C° 0 mm 1 mps 714 mmHg 30%
    08:00 +33°C° 0 mm 1 mps 714 mmHg 27%
    09:00 +34°C° 0 mm 1 mps 714 mmHg 25%
    10:00 +36°C° 0 mm 1 mps 714 mmHg 23%
    11:00 +37°C° 0 mm 1 mps 714 mmHg 20%
    12:00 +39°C° 0 mm 2 mps 713 mmHg 19%
    13:00 +40°C° 0 mm 2 mps 712 mmHg 18%
    14:00 +42°C° 0 mm 3 mps 712 mmHg 17%
    15:00 +42°C° 0 mm 3 mps 711 mmHg 17%
    16:00 +42°C° 0 mm 3 mps 711 mmHg 18%
    17:00 +42°C° 0 mm 4 mps 711 mmHg 18%
    18:00 +40°C° 0.3 mm 3 mps 711 mmHg 21%
    19:00 +38°C° 0.3 mm 3 mps 712 mmHg 25%
    20:00 +36°C° 0.3 mm 3 mps 712 mmHg 28%
    21:00 +35°C° 0.5 mm 3 mps 713 mmHg 31%
    22:00 +32°C° 0.5 mm 2 mps 713 mmHg 34%
    23:00 +31°C° 0.5 mm 2 mps 714 mmHg 37%

    23 January, Monday

    Time Temperature Precipitation Wind Pressure Humidity
    00:00 +31°C° 0.5 mm 2 mps 714 mmHg 38%
    01:00 +30°C° 0.5 mm 2 mps 713 mmHg 40%
    02:00 +30°C° 0.5 mm 3 mps 713 mmHg 41%
    03:00 +29°C° 0.3 mm 2 mps 713 mmHg 42%
    04:00 +29°C° 0.3 mm 2 mps 714 mmHg 42%
    05:00 +28°C° 0.3 mm 2 mps 714 mmHg 43%
    06:00 +29°C° 0.4 mm 2 mps 714 mmHg 40%
    07:00 +30°C° 0.4 mm 2 mps 715 mmHg 38%
    08:00 +31°C° 0.4 mm 2 mps 716 mmHg 35%
    09:00 +32°C° 0.3 mm 2 mps 716 mmHg 33%
    10:00 +34°C° 0.3 mm 2 mps 716 mmHg 31%
    11:00 +35°C° 0.3 mm 2 mps 716 mmHg 30%
    12:00 +36°C° 0.2 mm 2 mps 715 mmHg 29%
    13:00 +36°C° 0.2 mm 2 mps 715 mmHg 28%
    14:00 +37°C° 0.2 mm 2 mps 714 mmHg 27%
    15:00 +37°C° 0 mm 2 mps 714 mmHg 26%
    16:00 +37°C° 0 mm 2 mps 713 mmHg 26%
    17:00 +37°C° 0 mm 2 mps 713 mmHg 25%
    18:00 +35°C° 0 mm 2 mps 713 mmHg 28%
    19:00 +34°C° 0 mm 2 mps 713 mmHg 31%
    20:00 +33°C° 0 mm 3 mps 713 mmHg 34%
    21:00 +31°C° 0 mm 3 mps 714 mmHg 35%
    22:00 +30°C° 0 mm 3 mps 714 mmHg 37%
    23:00 +29°C° 0 mm 3 mps 714 mmHg 39%

    24 January, Tuesday

    Time Temperature Precipitation Wind Pressure Humidity
    00:00 +29°C° 0.1 mm 3 mps 714 mmHg 39%
    01:00 +29°C° 0.1 mm 3 mps 714 mmHg 40%
    02:00 +28°C° 0.1 mm 3 mps 714 mmHg 41%
    03:00 +28°C° 0 mm 3 mps 714 mmHg 42%
    04:00 +27°C° 0 mm 3 mps 714 mmHg 43%
    05:00 +27°C° 0 mm 3 mps 714 mmHg 44%
    06:00 +28°C° 0 mm 2 mps 715 mmHg 40%
    07:00 +30°C° 0 mm 2 mps 716 mmHg 36%
    08:00 +31°C° 0 mm 2 mps 717 mmHg 31%
    09:00 +34°C° 0 mm 2 mps 717 mmHg 28%
    10:00 +35°C° 0 mm 1 mps 717 mmHg 25%
    11:00 +36°C° 0 mm 1 mps 717 mmHg 22%
    12:00 +37°C° 0 mm 1 mps 716 mmHg 21%
    13:00 +39°C° 0 mm 2 mps 715 mmHg 19%
    14:00 +40°C° 0 mm 2 mps 715 mmHg 18%
    15:00 +40°C° 0 mm 2 mps 714 mmHg 18%
    16:00 +40°C° 0 mm 3 mps 714 mmHg 18%
    17:00 +40°C° 0 mm 3 mps 713 mmHg 19%
    18:00 +38°C° 0 mm 3 mps 714 mmHg 22%
    19:00 +36°C° 0 mm 3 mps 714 mmHg 25%
    20:00 +34°C° 0 mm 3 mps 714 mmHg 28%
    21:00 +33°C° 0 mm 3 mps 715 mmHg 30%
    22:00 +33°C° 0 mm 3 mps 715 mmHg 31%
    23:00 +31°C° 0 mm 3 mps 716 mmHg 33%
    Show more